Time,TemperatureF,DewpointF,PressureIn,WindDirection,WindDirectionDegrees,WindSpeedMPH,WindSpeedGustMPH,Humidity,HourlyPrecipIn,Conditions,Clouds,dailyrainin,SoftwareType,DateUTC
2013-07-18 00:01:00,85.6,73.9,30.05,West,263,1.0,5.0,68,0.00,,,0.00,meteohub,2013-07-18 04:01:00,
2013-07-18 00:02:00,85.6,73.9,30.05,SSE,148,2.0,5.0,68,0.00,,,0.00,meteohub,2013-07-18 04:02:00,
2013-07-18 00:07:00,85.6,73.9,30.04,SE,129,1.0,5.0,68,0.00,,,0.00,meteohub,2013-07-18 04:07:00,
2013-07-18 00:12:00,85.5,73.8,30.05,SSE,163,2.0,4.0,68,0.00,,,0.00,meteohub,2013-07-18 04:12:00,
2013-07-18 00:19:00,85.3,73.6,30.04,ESE,119,2.0,6.0,68,0.00,,,0.00,meteohub,2013-07-18 04:19:00,
2013-07-18 00:24:00,85.3,73.9,30.04,SSW,208,0.0,6.0,69,0.00,,,0.00,meteohub,2013-07-18 04:24:00,
2013-07-18 00:29:00,85.3,73.9,30.04,SSW,197,0.0,6.0,69,0.00,,,0.00,meteohub,2013-07-18 04:29:00,
2013-07-18 00:34:00,85.1,74.1,30.04,SSE,156,1.0,6.0,70,0.00,,,0.00,meteohub,2013-07-18 04:34:00,
2013-07-18 00:39:00,84.9,74.1,30.04,SSE,150,1.0,6.0,70,0.00,,,0.00,meteohub,2013-07-18 04:39:00,
2013-07-18 00:44:00,84.9,74.5,30.04,SE,143,1.0,4.0,71,0.00,,,0.00,meteohub,2013-07-18 04:44:00,
2013-07-18 00:49:00,84.9,74.5,30.04,SSW,201,1.0,4.0,71,0.00,,,0.00,meteohub,2013-07-18 04:49:00,
2013-07-18 00:54:00,84.7,74.3,30.04,SSW,200,2.0,4.0,71,0.00,,,0.00,meteohub,2013-07-18 04:54:00,
2013-07-18 00:59:00,84.7,74.7,30.04,South,174,2.0,4.0,72,0.00,,,0.00,meteohub,2013-07-18 04:59:00,
2013-07-18 01:04:00,84.6,74.5,30.04,SE,141,2.0,4.0,72,0.00,,,0.00,meteohub,2013-07-18 05:04:00,
2013-07-18 01:09:00,84.4,74.8,30.04,South,186,4.0,4.0,73,0.00,,,0.00,meteohub,2013-07-18 05:09:00,
2013-07-18 01:14:00,84.4,74.8,30.04,South,188,2.0,5.0,73,0.00,,,0.00,meteohub,2013-07-18 05:14:00,
2013-07-18 01:19:00,84.4,74.8,30.04,SSE,148,1.0,5.0,73,0.00,,,0.00,meteohub,2013-07-18 05:19:00,
2013-07-18 01:24:00,84.0,74.8,30.04,SSE,166,1.0,5.0,74,0.00,,,0.00,meteohub,2013-07-18 05:24:00,
2013-07-18 01:29:00,84.0,74.8,30.04,SW,226,3.0,4.0,74,0.00,,,0.00,meteohub,2013-07-18 05:29:00,
2013-07-18 01:34:00,84.0,75.2,30.03,SE,143,2.0,4.0,75,0.00,,,0.00,meteohub,2013-07-18 05:34:00,
2013-07-18 01:39:00,83.8,75.0,30.03,SSW,204,2.0,4.0,75,0.00,,,0.00,meteohub,2013-07-18 05:39:00,
2013-07-18 01:44:00,83.7,75.2,30.03,SE,146,1.0,4.0,76,0.00,,,0.00,meteohub,2013-07-18 05:44:00,
2013-07-18 01:49:00,83.7,75.2,30.03,South,174,2.0,4.0,76,0.00,,,0.00,meteohub,2013-07-18 05:49:00,
2013-07-18 01:54:00,83.7,75.2,30.03,South,169,1.0,4.0,76,0.00,,,0.00,meteohub,2013-07-18 05:54:00,
2013-07-18 01:59:00,83.5,75.6,30.03,West,259,0.0,4.0,77,0.00,,,0.00,meteohub,2013-07-18 05:59:00,
2013-07-18 02:04:00,83.1,75.6,30.03,West,259,0.0,3.0,78,0.00,,,0.00,meteohub,2013-07-18 06:04:00,
2013-07-18 02:09:00,82.9,75.7,30.03,SW,231,0.0,2.0,79,0.00,,,0.00,meteohub,2013-07-18 06:09:00,
2013-07-18 02:14:00,82.9,75.7,30.03,WSW,241,0.0,1.0,79,0.00,,,0.00,meteohub,2013-07-18 06:14:00,
2013-07-18 02:19:00,83.1,75.9,30.03,SW,228,1.0,2.0,79,0.00,,,0.00,meteohub,2013-07-18 06:19:00,
2013-07-18 02:24:00,82.9,75.7,30.02,SSW,193,0.0,2.0,79,0.00,,,0.00,meteohub,2013-07-18 06:24:00,
2013-07-18 02:29:00,82.8,75.6,30.02,SE,136,2.0,2.0,79,0.00,,,0.00,meteohub,2013-07-18 06:29:00,
2013-07-18 02:34:00,82.9,76.1,30.02,SSE,167,0.0,2.0,80,0.00,,,0.00,meteohub,2013-07-18 06:34:00,
2013-07-18 02:39:00,82.8,75.9,30.02,SW,218,1.0,3.0,80,0.00,,,0.00,meteohub,2013-07-18 06:39:00,
2013-07-18 02:44:00,82.8,75.9,30.02,SW,231,1.0,3.0,80,0.00,,,0.00,meteohub,2013-07-18 06:44:00,
2013-07-18 02:49:00,82.9,76.1,30.02,WSW,238,0.0,3.0,80,0.00,,,0.00,meteohub,2013-07-18 06:49:00,
2013-07-18 02:54:00,82.9,76.1,30.02,WNW,285,0.0,4.0,80,0.00,,,0.00,meteohub,2013-07-18 06:54:00,
2013-07-18 02:59:00,82.9,75.7,30.01,WSW,242,0.0,4.0,79,0.00,,,0.00,meteohub,2013-07-18 06:59:00,
2013-07-18 03:04:00,82.9,76.1,30.01,WSW,240,0.0,4.0,80,0.00,,,0.00,meteohub,2013-07-18 07:04:00,
2013-07-18 03:09:00,82.9,75.7,30.01,SW,231,0.0,2.0,79,0.00,,,0.00,meteohub,2013-07-18 07:09:00,
2013-07-18 03:14:00,82.9,76.1,30.01,SSW,204,0.0,1.0,80,0.00,,,0.00,meteohub,2013-07-18 07:14:00,
2013-07-18 03:19:00,82.8,75.9,30.01,SSW,197,0.0,1.0,80,0.00,,,0.00,meteohub,2013-07-18 07:19:00,
2013-07-18 03:24:00,82.6,75.7,30.01,SE,136,1.0,3.0,80,0.00,,,0.00,meteohub,2013-07-18 07:24:00,
2013-07-18 03:29:00,82.6,75.7,30.01,SSE,158,0.0,3.0,80,0.00,,,0.00,meteohub,2013-07-18 07:29:00,
2013-07-18 03:34:00,82.6,75.7,30.01,SSW,200,2.0,3.0,80,0.00,,,0.00,meteohub,2013-07-18 07:34:00,
2013-07-18 03:39:00,82.6,75.7,30.01,SW,215,4.0,4.0,80,0.00,,,0.00,meteohub,2013-07-18 07:39:00,
2013-07-18 03:44:00,82.4,75.2,30.01,SE,135,1.0,3.0,79,0.00,,,0.00,meteohub,2013-07-18 07:44:00,
2013-07-18 03:49:00,82.4,75.2,30.01,SSE,163,2.0,4.0,79,0.00,,,0.00,meteohub,2013-07-18 07:49:00,
2013-07-18 03:54:00,82.4,75.2,30.01,SE,127,1.0,4.0,79,0.00,,,0.00,meteohub,2013-07-18 07:54:00,
2013-07-18 03:59:00,82.4,75.6,30.01,SW,226,1.0,3.0,80,0.00,,,0.00,meteohub,2013-07-18 07:59:00,
2013-07-18 04:04:00,82.2,75.4,30.01,SSW,210,1.0,4.0,80,0.00,,,0.00,meteohub,2013-07-18 08:04:00,
2013-07-18 04:09:00,82.2,75.7,30.01,South,191,0.0,4.0,81,0.00,,,0.00,meteohub,2013-07-18 08:09:00,
2013-07-18 04:14:00,82.0,75.9,30.01,SSE,148,1.0,4.0,82,0.00,,,0.00,meteohub,2013-07-18 08:14:00,
2013-07-18 04:19:00,82.0,75.9,30.01,South,174,2.0,3.0,82,0.00,,,0.00,meteohub,2013-07-18 08:19:00,
2013-07-18 04:24:00,81.9,75.7,30.01,SSW,211,1.0,4.0,82,0.00,,,0.00,meteohub,2013-07-18 08:24:00,
2013-07-18 04:29:00,81.7,75.6,30.00,South,185,0.0,4.0,82,0.00,,,0.00,meteohub,2013-07-18 08:29:00,
2013-07-18 04:34:00,81.7,75.2,30.01,SSW,194,0.0,4.0,81,0.00,,,0.00,meteohub,2013-07-18 08:34:00,
2013-07-18 04:39:00,81.7,75.2,30.01,SW,233,2.0,3.0,81,0.00,,,0.00,meteohub,2013-07-18 08:39:00,
2013-07-18 04:44:00,81.7,75.2,30.01,SW,229,0.0,3.0,81,0.00,,,0.00,meteohub,2013-07-18 08:44:00,
2013-07-18 04:49:00,81.7,75.2,30.01,SW,230,0.0,3.0,81,0.00,,,0.00,meteohub,2013-07-18 08:49:00,
2013-07-18 04:54:00,81.7,75.2,30.00,South,180,2.0,3.0,81,0.00,,,0.00,meteohub,2013-07-18 08:54:00,
2013-07-18 04:59:00,81.7,74.8,30.00,SW,226,2.0,4.0,80,0.00,,,0.00,meteohub,2013-07-18 08:59:00,
2013-07-18 05:04:00,81.5,74.7,30.00,WSW,245,2.0,5.0,80,0.00,,,0.00,meteohub,2013-07-18 09:04:00,
2013-07-18 05:09:00,81.5,74.7,30.01,SW,223,0.0,5.0,80,0.00,,,0.00,meteohub,2013-07-18 09:09:00,
2013-07-18 05:14:00,81.3,74.8,30.01,SSE,160,0.0,5.0,81,0.00,,,0.00,meteohub,2013-07-18 09:14:00,
2013-07-18 05:19:00,81.3,74.8,30.01,SSW,195,0.0,4.0,81,0.00,,,0.00,meteohub,2013-07-18 09:19:00,
2013-07-18 05:24:00,81.3,75.4,30.01,SSW,200,0.0,3.0,82,0.00,,,0.00,meteohub,2013-07-18 09:24:00,
2013-07-18 05:29:00,81.3,75.4,30.01,SW,216,0.0,0.0,82,0.00,,,0.00,meteohub,2013-07-18 09:29:00,
2013-07-18 05:35:00,81.3,75.4,30.01,SW,217,0.0,0.0,82,0.00,,,0.00,meteohub,2013-07-18 09:35:00,
2013-07-18 05:40:00,81.5,74.7,30.01,NW,321,2.0,0.0,80,0.00,,,0.00,meteohub,2013-07-18 09:40:00,
2013-07-18 05:45:00,81.9,74.3,30.01,NW,316,0.0,4.0,78,0.00,,,0.00,meteohub,2013-07-18 09:45:00,
2013-07-18 05:50:00,82.0,74.1,30.01,NW,315,1.0,4.0,77,0.00,,,0.00,meteohub,2013-07-18 09:50:00,
2013-07-18 05:55:00,82.0,73.8,30.01,WSW,248,1.0,4.0,76,0.00,,,0.00,meteohub,2013-07-18 09:55:00,
2013-07-18 06:00:00,82.0,73.8,30.01,WNW,286,2.0,3.0,76,0.00,,,0.00,meteohub,2013-07-18 10:00:00,
2013-07-18 06:05:00,82.0,73.8,30.01,NNW,342,1.0,3.0,76,0.00,,,0.00,meteohub,2013-07-18 10:05:00,
2013-07-18 06:10:00,81.9,73.6,30.01,WNW,300,1.0,6.0,76,0.00,,,0.00,meteohub,2013-07-18 10:10:00,
2013-07-18 06:15:00,81.9,73.6,30.01,NNW,331,1.0,6.0,76,0.00,,,0.00,meteohub,2013-07-18 10:15:00,
2013-07-18 06:20:00,81.9,73.6,30.01,NW,312,2.0,6.0,76,0.00,,,0.00,meteohub,2013-07-18 10:20:00,
2013-07-18 06:25:00,81.9,73.6,30.01,NNW,347,1.0,4.0,76,0.00,,,0.00,meteohub,2013-07-18 10:25:00,
2013-07-18 06:30:00,81.9,73.6,30.01,NNW,342,2.0,5.0,76,0.00,,,0.00,meteohub,2013-07-18 10:30:00,
2013-07-18 06:35:00,81.9,73.6,30.01,NW,315,3.0,6.0,76,0.00,,,0.00,meteohub,2013-07-18 10:35:00,
2013-07-18 06:40:00,81.7,73.8,30.01,NW,304,3.0,6.0,77,0.00,,,0.00,meteohub,2013-07-18 10:40:00,
2013-07-18 06:45:00,81.7,73.8,30.01,NW,309,6.0,7.0,77,0.00,,,0.00,meteohub,2013-07-18 10:45:00,
2013-07-18 06:50:00,81.7,73.8,30.01,NW,320,3.0,7.0,77,0.00,,,0.00,meteohub,2013-07-18 10:50:00,
2013-07-18 06:55:00,81.9,73.9,30.01,NNE,13,2.0,7.0,77,0.00,,,0.00,meteohub,2013-07-18 10:55:00,
2013-07-18 07:00:00,81.9,73.9,30.01,NW,317,3.0,7.0,77,0.00,,,0.00,meteohub,2013-07-18 11:00:00,
2013-07-18 07:05:00,81.9,73.9,30.02,NW,312,3.0,7.0,77,0.00,,,0.00,meteohub,2013-07-18 11:05:00,
2013-07-18 07:10:00,81.9,73.9,30.02,WNW,300,5.0,6.0,77,0.00,,,0.00,meteohub,2013-07-18 11:10:00,
2013-07-18 07:15:00,82.0,74.1,30.02,WNW,289,6.0,7.0,77,0.00,,,0.00,meteohub,2013-07-18 11:15:00,
2013-07-18 07:20:00,82.0,74.1,30.02,North,8,5.0,7.0,77,0.00,,,0.00,meteohub,2013-07-18 11:20:00,
2013-07-18 07:25:00,82.4,74.1,30.02,NNW,329,2.0,7.0,76,0.00,,,0.00,meteohub,2013-07-18 11:25:00,
2013-07-18 07:30:00,82.6,74.3,30.02,NNW,347,2.0,7.0,76,0.00,,,0.00,meteohub,2013-07-18 11:30:00,
2013-07-18 07:35:00,82.6,74.3,30.02,WNW,295,2.0,7.0,76,0.00,,,0.00,meteohub,2013-07-18 11:35:00,
2013-07-18 07:40:00,82.8,73.9,30.03,NNW,329,0.0,7.0,75,0.00,,,0.00,meteohub,2013-07-18 11:40:00,
2013-07-18 07:45:00,82.9,73.8,30.02,WNW,302,0.0,7.0,74,0.00,,,0.00,meteohub,2013-07-18 11:45:00,
2013-07-18 07:50:00,83.5,74.3,30.03,NNW,338,0.0,7.0,74,0.00,,,0.00,meteohub,2013-07-18 11:50:00,
2013-07-18 07:55:00,83.7,74.1,30.03,NW,322,1.0,7.0,73,0.00,,,0.00,meteohub,2013-07-18 11:55:00,
2013-07-18 08:00:00,83.8,73.8,30.03,NNW,343,2.0,7.0,72,0.00,,,0.00,meteohub,2013-07-18 12:00:00,
2013-07-18 08:05:00,84.0,73.9,30.03,NNE,27,5.0,7.0,72,0.00,,,0.00,meteohub,2013-07-18 12:05:00,
2013-07-18 08:10:00,84.4,73.9,30.03,NW,319,4.0,8.0,71,0.00,,,0.00,meteohub,2013-07-18 12:10:00,
2013-07-18 08:15:00,84.6,73.8,30.03,NW,324,3.0,8.0,70,0.00,,,0.00,meteohub,2013-07-18 12:15:00,
2013-07-18 08:20:00,84.7,73.9,30.03,West,280,3.0,8.0,70,0.00,,,0.00,meteohub,2013-07-18 12:20:00,
2013-07-18 08:25:00,85.1,74.1,30.03,North,350,2.0,7.0,70,0.00,,,0.00,meteohub,2013-07-18 12:25:00,
2013-07-18 08:30:00,85.6,74.3,30.03,ENE,60,2.0,7.0,69,0.00,,,0.00,meteohub,2013-07-18 12:30:00,
2013-07-18 08:35:00,86.2,74.3,30.03,NW,315,3.0,6.0,68,0.00,,,0.00,meteohub,2013-07-18 12:35:00,
2013-07-18 08:40:00,86.0,74.1,30.03,NW,312,1.0,6.0,68,0.00,,,0.00,meteohub,2013-07-18 12:40:00,
2013-07-18 08:45:00,86.5,74.3,30.03,North,349,1.0,6.0,67,0.00,,,0.00,meteohub,2013-07-18 12:45:00,
2013-07-18 08:50:00,86.9,74.7,30.04,North,354,4.0,6.0,67,0.00,,,0.00,meteohub,2013-07-18 12:50:00,
2013-07-18 08:55:00,86.7,74.5,30.03,NNW,346,2.0,6.0,67,0.00,,,0.00,meteohub,2013-07-18 12:55:00,
2013-07-18 09:00:00,87.3,74.5,30.04,NNW,330,3.0,7.0,66,0.00,,,0.00,meteohub,2013-07-18 13:00:00,
2013-07-18 09:05:00,87.4,74.7,30.03,NW,323,2.0,7.0,66,0.00,,,0.00,meteohub,2013-07-18 13:05:00,
2013-07-18 09:10:00,88.2,74.5,30.03,NNE,22,4.0,7.0,64,0.00,,,0.00,meteohub,2013-07-18 13:10:00,
2013-07-18 09:15:00,88.2,74.5,30.04,NNW,333,2.0,5.0,64,0.00,,,0.00,meteohub,2013-07-18 13:15:00,
2013-07-18 09:20:00,88.9,74.7,30.03,NE,53,3.0,7.0,63,0.00,,,0.00,meteohub,2013-07-18 13:20:00,
2013-07-18 09:25:00,89.2,74.5,30.03,NE,47,3.0,7.0,62,0.00,,,0.00,meteohub,2013-07-18 13:25:00,
2013-07-18 09:30:00,89.6,74.8,30.03,NNW,328,2.0,7.0,62,0.00,,,0.00,meteohub,2013-07-18 13:30:00,
2013-07-18 09:35:00,89.8,75.0,30.03,NNE,19,3.0,6.0,62,0.00,,,0.00,meteohub,2013-07-18 13:35:00,
2013-07-18 09:40:00,90.0,75.2,30.03,NNW,334,2.0,5.0,62,0.00,,,0.00,meteohub,2013-07-18 13:40:00,
2013-07-18 09:45:00,90.1,74.8,30.03,NNE,12,1.0,5.0,61,0.00,,,0.00,meteohub,2013-07-18 13:45:00,
2013-07-18 09:50:00,90.0,74.7,30.03,NNE,31,4.0,5.0,61,0.00,,,0.00,meteohub,2013-07-18 13:50:00,
2013-07-18 09:55:00,90.3,75.0,30.03,NE,44,3.0,7.0,61,0.00,,,0.00,meteohub,2013-07-18 13:55:00,
2013-07-18 10:00:00,90.5,75.2,30.03,ESE,122,1.0,7.0,61,0.00,,,0.00,meteohub,2013-07-18 14:00:00,
2013-07-18 10:05:00,90.9,75.0,30.03,NNE,20,4.0,7.0,60,0.00,,,0.00,meteohub,2013-07-18 14:05:00,
2013-07-18 10:10:00,91.0,75.2,30.03,North,356,2.0,5.0,60,0.00,,,0.00,meteohub,2013-07-18 14:10:00,
2013-07-18 10:15:00,91.4,75.6,30.03,NE,53,3.0,5.0,60,0.00,,,0.00,meteohub,2013-07-18 14:15:00,
2013-07-18 10:20:00,91.6,75.7,30.03,ENE,63,2.0,5.0,60,0.00,,,0.00,meteohub,2013-07-18 14:20:00,
2013-07-18 10:25:00,91.2,74.8,30.03,NE,47,2.0,6.0,59,0.00,,,0.00,meteohub,2013-07-18 14:25:00,
2013-07-18 10:30:00,91.6,75.2,30.03,NE,47,0.0,6.0,59,0.00,,,0.00,meteohub,2013-07-18 14:30:00,
2013-07-18 10:35:00,92.5,75.0,30.03,NW,311,1.0,6.0,57,0.00,,,0.00,meteohub,2013-07-18 14:35:00,
2013-07-18 10:40:00,92.1,75.2,30.03,NE,50,0.0,10.0,58,0.00,,,0.00,meteohub,2013-07-18 14:40:00,
2013-07-18 10:45:00,92.5,75.6,30.03,NNW,338,1.0,10.0,58,0.00,,,0.00,meteohub,2013-07-18 14:45:00,
2013-07-18 10:50:00,92.7,75.2,30.03,SW,232,0.0,10.0,57,0.00,,,0.00,meteohub,2013-07-18 14:50:00,
2013-07-18 10:55:00,93.0,74.5,30.03,NE,39,5.0,5.0,55,0.00,,,0.00,meteohub,2013-07-18 14:55:00,
2013-07-18 11:00:00,92.5,74.5,30.02,SW,230,2.0,6.0,56,0.00,,,0.00,meteohub,2013-07-18 15:00:00,
2013-07-18 11:05:00,92.8,74.8,30.03,NW,318,1.0,6.0,56,0.00,,,0.00,meteohub,2013-07-18 15:05:00,
2013-07-18 11:10:00,93.0,75.0,30.02,NE,56,3.0,7.0,56,0.00,,,0.00,meteohub,2013-07-18 15:10:00,
2013-07-18 11:15:00,92.1,74.7,30.02,NE,48,3.0,7.0,57,0.00,,,0.00,meteohub,2013-07-18 15:15:00,
2013-07-18 11:20:00,92.1,75.2,30.02,NNE,27,2.0,7.0,58,0.00,,,0.00,meteohub,2013-07-18 15:20:00,
2013-07-18 11:25:00,92.1,75.2,30.02,ENE,67,0.0,6.0,58,0.00,,,0.00,meteohub,2013-07-18 15:25:00,
2013-07-18 11:26:00,92.3,75.9,30.02,NE,45,4.0,6.0,59,0.00,,,0.00,meteohub,2013-07-18 15:26:00,
2013-07-18 11:31:00,93.2,75.2,30.02,East,101,2.0,7.0,56,0.00,,,0.00,meteohub,2013-07-18 15:31:00,
2013-07-18 11:36:00,93.9,75.2,30.02,NNW,340,4.0,7.0,55,0.00,,,0.00,meteohub,2013-07-18 15:36:00,
2013-07-18 11:41:00,94.8,75.0,30.02,NNW,338,4.0,7.0,53,0.00,,,0.00,meteohub,2013-07-18 15:41:00,
2013-07-18 11:46:00,94.5,75.2,30.02,NNW,343,5.0,5.0,54,0.00,,,0.00,meteohub,2013-07-18 15:46:00,
2013-07-18 11:51:00,93.9,74.1,30.02,NW,307,2.0,7.0,53,0.00,,,0.00,meteohub,2013-07-18 15:51:00,
2013-07-18 11:56:00,93.0,74.5,30.02,WNW,301,1.0,7.0,55,0.00,,,0.00,meteohub,2013-07-18 15:56:00,
2013-07-18 12:01:00,93.0,74.5,30.01,NNW,337,3.0,6.0,55,0.00,,,0.00,meteohub,2013-07-18 16:01:00,
2013-07-18 12:06:00,93.0,74.5,30.01,NNW,331,1.0,5.0,55,0.00,,,0.00,meteohub,2013-07-18 16:06:00,
2013-07-18 12:11:00,93.2,74.7,30.01,NW,309,0.0,6.0,55,0.00,,,0.00,meteohub,2013-07-18 16:11:00,
2013-07-18 12:16:00,93.2,74.1,30.01,NNW,330,3.0,7.0,54,0.00,,,0.00,meteohub,2013-07-18 16:16:00,
2013-07-18 12:21:00,93.6,74.5,30.01,NNE,32,4.0,7.0,54,0.00,,,0.00,meteohub,2013-07-18 16:21:00,
2013-07-18 12:26:00,94.3,73.9,30.01,NE,45,3.0,7.0,52,0.00,,,0.00,meteohub,2013-07-18 16:26:00,
2013-07-18 12:31:00,93.9,74.1,30.01,NE,46,0.0,6.0,53,0.00,,,0.00,meteohub,2013-07-18 16:31:00,
2013-07-18 12:36:00,95.4,75.0,30.01,NNE,26,1.0,5.0,52,0.00,,,0.00,meteohub,2013-07-18 16:36:00,
2013-07-18 12:41:00,96.6,74.3,30.01,ENE,68,0.0,5.0,49,0.00,,,0.00,meteohub,2013-07-18 16:41:00,
2013-07-18 12:46:00,98.2,74.5,30.01,SSE,167,0.0,4.0,47,0.00,,,0.00,meteohub,2013-07-18 16:46:00,
2013-07-18 12:51:00,98.8,75.7,30.00,SSW,210,2.0,5.0,48,0.00,,,0.00,meteohub,2013-07-18 16:51:00,
2013-07-18 12:56:00,98.6,74.8,30.01,SW,224,2.0,5.0,47,0.00,,,0.00,meteohub,2013-07-18 16:56:00,
2013-07-18 13:01:00,98.2,75.2,30.01,ESE,119,0.0,5.0,48,0.00,,,0.00,meteohub,2013-07-18 17:01:00,
2013-07-18 13:06:00,97.0,75.2,30.00,NE,41,2.0,4.0,50,0.00,,,0.00,meteohub,2013-07-18 17:06:00,
2013-07-18 13:11:00,96.1,75.0,30.00,SSE,162,3.0,5.0,51,0.00,,,0.00,meteohub,2013-07-18 17:11:00,
2013-07-18 13:16:00,95.5,75.0,30.00,ENE,62,1.0,5.0,52,0.00,,,0.00,meteohub,2013-07-18 17:16:00,
2013-07-18 13:21:00,95.5,75.7,30.00,NNE,30,2.0,5.0,53,0.00,,,0.00,meteohub,2013-07-18 17:21:00,
2013-07-18 13:26:00,96.3,75.7,30.00,SSE,149,0.0,4.0,52,0.00,,,0.00,meteohub,2013-07-18 17:26:00,
2013-07-18 13:31:00,96.4,75.4,30.00,ESE,107,0.0,3.0,51,0.00,,,0.00,meteohub,2013-07-18 17:31:00,
2013-07-18 13:36:00,96.3,75.2,29.99,SE,135,1.0,3.0,51,0.00,,,0.00,meteohub,2013-07-18 17:36:00,
2013-07-18 13:41:00,96.1,75.6,29.99,NNW,332,2.0,4.0,52,0.00,,,0.00,meteohub,2013-07-18 17:41:00,
2013-07-18 13:46:00,95.9,74.3,29.99,SE,127,0.0,4.0,50,0.00,,,0.00,meteohub,2013-07-18 17:46:00,
2013-07-18 13:51:00,95.5,72.7,29.99,NW,314,0.0,3.0,48,0.00,,,0.00,meteohub,2013-07-18 17:51:00,
2013-07-18 13:56:00,95.5,73.9,29.99,North,1,1.0,4.0,50,0.00,,,0.00,meteohub,2013-07-18 17:56:00,
2013-07-18 14:01:00,95.5,74.5,29.99,SSE,156,0.0,4.0,51,0.00,,,0.00,meteohub,2013-07-18 18:01:00,
2013-07-18 14:06:00,95.5,73.9,29.99,NNW,339,1.0,3.0,50,0.00,,,0.00,meteohub,2013-07-18 18:06:00,
2013-07-18 14:11:00,95.7,74.1,29.99,SW,219,0.0,4.0,50,0.00,,,0.00,meteohub,2013-07-18 18:11:00,
2013-07-18 14:16:00,96.3,75.2,29.98,SE,141,2.0,4.0,51,0.00,,,0.00,meteohub,2013-07-18 18:16:00,
2013-07-18 14:22:00,95.5,75.0,29.98,SE,134,3.0,5.0,52,0.00,,,0.00,meteohub,2013-07-18 18:22:00,
2013-07-18 14:27:00,95.0,74.7,29.98,SSE,152,1.0,5.0,52,0.00,,,0.00,meteohub,2013-07-18 18:27:00,
2013-07-18 14:32:00,95.0,75.2,29.98,SE,138,0.0,6.0,53,0.00,,,0.00,meteohub,2013-07-18 18:32:00,
2013-07-18 14:37:00,95.4,75.0,29.98,NNE,16,0.0,6.0,52,0.00,,,0.00,meteohub,2013-07-18 18:37:00,
2013-07-18 14:42:00,95.5,74.5,29.98,NNE,18,1.0,6.0,51,0.00,,,0.00,meteohub,2013-07-18 18:42:00,
2013-07-18 14:47:00,95.2,74.1,29.98,West,260,0.0,4.0,51,0.00,,,0.00,meteohub,2013-07-18 18:47:00,
2013-07-18 14:52:00,95.5,75.0,29.97,NE,37,2.0,5.0,52,0.00,,,0.00,meteohub,2013-07-18 18:52:00,
2013-07-18 14:57:00,96.4,75.4,29.97,South,170,1.0,5.0,51,0.00,,,0.00,meteohub,2013-07-18 18:57:00,
2013-07-18 15:02:00,97.2,74.8,29.97,SE,142,5.0,5.0,49,0.00,,,0.00,meteohub,2013-07-18 19:02:00,
2013-07-18 15:07:00,97.2,74.8,29.97,SE,136,2.0,8.0,49,0.00,,,0.00,meteohub,2013-07-18 19:07:00,
2013-07-18 15:12:00,97.0,74.7,29.96,WSW,243,5.0,8.0,49,0.00,,,0.00,meteohub,2013-07-18 19:12:00,
2013-07-18 15:17:00,96.8,74.5,29.96,WSW,246,5.0,8.0,49,0.00,,,0.00,meteohub,2013-07-18 19:17:00,
2013-07-18 15:22:00,96.4,74.8,29.96,SSE,149,3.0,10.0,50,0.00,,,0.00,meteohub,2013-07-18 19:22:00,
2013-07-18 15:27:00,96.4,75.4,29.96,SW,215,3.0,10.0,51,0.00,,,0.00,meteohub,2013-07-18 19:27:00,
2013-07-18 15:32:00,96.3,75.2,29.96,South,187,6.0,7.0,51,0.00,,,0.00,meteohub,2013-07-18 19:32:00,
2013-07-18 15:37:00,95.7,75.2,29.96,SSE,148,4.0,9.0,52,0.00,,,0.00,meteohub,2013-07-18 19:37:00,
2013-07-18 15:42:00,95.4,75.0,29.96,SE,141,3.0,9.0,52,0.00,,,0.00,meteohub,2013-07-18 19:42:00,
2013-07-18 15:47:00,95.2,75.4,29.96,SSE,155,5.0,9.0,53,0.00,,,0.00,meteohub,2013-07-18 19:47:00,
2013-07-18 15:52:00,94.8,75.0,29.96,SE,135,3.0,7.0,53,0.00,,,0.00,meteohub,2013-07-18 19:52:00,
2013-07-18 15:57:00,94.6,74.8,29.95,SSE,153,3.0,6.0,53,0.00,,,0.00,meteohub,2013-07-18 19:57:00,
2013-07-18 16:02:00,94.6,75.4,29.95,SSE,150,2.0,8.0,54,0.00,,,0.00,meteohub,2013-07-18 20:02:00,
2013-07-18 16:07:00,95.0,75.7,29.95,SSE,155,4.0,8.0,54,0.00,,,0.00,meteohub,2013-07-18 20:07:00,
2013-07-18 16:12:00,95.2,75.9,29.95,SSE,150,3.0,8.0,54,0.00,,,0.00,meteohub,2013-07-18 20:12:00,
2013-07-18 16:17:00,95.4,76.1,29.94,SSW,205,5.0,9.0,54,0.00,,,0.00,meteohub,2013-07-18 20:17:00,
2013-07-18 16:22:00,95.4,76.1,29.94,SSW,192,4.0,10.0,54,0.00,,,0.00,meteohub,2013-07-18 20:22:00,
2013-07-18 16:27:00,95.5,75.7,29.94,SE,136,2.0,10.0,53,0.00,,,0.00,meteohub,2013-07-18 20:27:00,
2013-07-18 16:32:00,95.7,75.9,29.94,SE,141,4.0,11.0,53,0.00,,,0.00,meteohub,2013-07-18 20:32:00,
2013-07-18 16:37:00,95.4,76.1,29.94,SSE,163,7.0,11.0,54,0.00,,,0.00,meteohub,2013-07-18 20:37:00,
2013-07-18 16:42:00,95.2,76.5,29.94,South,183,7.0,11.0,55,0.00,,,0.00,meteohub,2013-07-18 20:42:00,
2013-07-18 16:47:00,95.4,76.1,29.94,South,184,5.0,11.0,54,0.00,,,0.00,meteohub,2013-07-18 20:47:00,
2013-07-18 16:52:00,95.4,76.1,29.94,South,177,3.0,11.0,54,0.00,,,0.00,meteohub,2013-07-18 20:52:00,
2013-07-18 16:57:00,95.4,76.1,29.94,SSE,155,6.0,11.0,54,0.00,,,0.00,meteohub,2013-07-18 20:57:00,
2013-07-18 17:02:00,95.4,76.1,29.94,SW,233,5.0,11.0,54,0.00,,,0.00,meteohub,2013-07-18 21:02:00,
2013-07-18 17:07:00,94.6,75.4,29.94,SSW,208,6.0,11.0,54,0.00,,,0.00,meteohub,2013-07-18 21:07:00,
2013-07-18 17:12:00,93.7,74.7,29.94,WSW,241,5.0,11.0,54,0.00,,,0.00,meteohub,2013-07-18 21:12:00,
2013-07-18 17:17:00,92.1,74.7,29.94,SW,230,2.0,11.0,57,0.00,,,0.00,meteohub,2013-07-18 21:17:00,
2013-07-18 17:22:00,90.7,75.4,29.94,South,176,7.0,11.0,61,0.00,,,0.00,meteohub,2013-07-18 21:22:00,
2013-07-18 17:27:00,90.0,75.7,29.93,SSE,168,3.0,14.0,63,0.00,,,0.00,meteohub,2013-07-18 21:27:00,
2013-07-18 17:32:00,90.3,75.0,29.93,SSW,200,4.0,14.0,61,0.00,,,0.00,meteohub,2013-07-18 21:32:00,
2013-07-18 17:37:00,90.9,75.0,29.93,SSW,205,2.0,14.0,60,0.00,,,0.00,meteohub,2013-07-18 21:37:00,
2013-07-18 17:42:00,91.6,75.7,29.93,South,177,2.0,9.0,60,0.00,,,0.00,meteohub,2013-07-18 21:42:00,
2013-07-18 17:47:00,92.1,75.7,29.93,South,190,2.0,9.0,59,0.00,,,0.00,meteohub,2013-07-18 21:47:00,
2013-07-18 17:52:00,92.5,75.6,29.93,SW,226,4.0,8.0,58,0.00,,,0.00,meteohub,2013-07-18 21:52:00,
2013-07-18 17:57:00,92.8,76.5,29.93,SSE,166,7.0,7.0,59,0.00,,,0.00,meteohub,2013-07-18 21:57:00,
2013-07-18 18:02:00,93.4,76.5,29.93,ESE,118,4.0,8.0,58,0.00,,,0.00,meteohub,2013-07-18 22:02:00,
2013-07-18 18:07:00,93.7,76.3,29.93,SE,131,3.0,8.0,57,0.00,,,0.00,meteohub,2013-07-18 22:07:00,
2013-07-18 18:12:00,94.3,76.6,29.92,South,187,3.0,8.0,57,0.00,,,0.00,meteohub,2013-07-18 22:12:00,
2013-07-18 18:17:00,94.8,76.1,29.92,WSW,239,2.0,6.0,55,0.00,,,0.00,meteohub,2013-07-18 22:17:00,
2013-07-18 18:22:00,95.2,76.5,29.92,SSW,212,2.0,6.0,55,0.00,,,0.00,meteohub,2013-07-18 22:22:00,
2013-07-18 18:27:00,95.0,76.8,29.92,SSE,152,2.0,6.0,56,0.00,,,0.00,meteohub,2013-07-18 22:27:00,
2013-07-18 18:32:00,95.2,77.0,29.92,SE,135,2.0,6.0,56,0.00,,,0.00,meteohub,2013-07-18 22:32:00,
2013-07-18 18:37:00,94.8,76.6,29.93,South,173,2.0,6.0,56,0.00,,,0.00,meteohub,2013-07-18 22:37:00,
2013-07-18 18:42:00,94.6,76.5,29.93,South,174,3.0,6.0,56,0.00,,,0.00,meteohub,2013-07-18 22:42:00,
2013-07-18 18:47:00,94.5,76.8,29.93,South,174,2.0,5.0,57,0.00,,,0.00,meteohub,2013-07-18 22:47:00,
2013-07-18 18:52:00,94.6,77.0,29.94,SE,135,5.0,5.0,57,0.00,,,0.00,meteohub,2013-07-18 22:52:00,
2013-07-18 18:57:00,93.9,76.8,29.94,SSE,163,3.0,7.0,58,0.00,,,0.00,meteohub,2013-07-18 22:57:00,
2013-07-18 19:02:00,93.7,76.6,29.94,SE,129,1.0,7.0,58,0.00,,,0.00,meteohub,2013-07-18 23:02:00,
2013-07-18 19:07:00,93.6,76.6,29.94,SSW,200,1.0,7.0,58,0.00,,,0.00,meteohub,2013-07-18 23:07:00,
2013-07-18 19:12:00,93.6,76.6,29.94,SE,129,1.0,6.0,58,0.00,,,0.00,meteohub,2013-07-18 23:12:00,
2013-07-18 19:17:00,93.2,76.6,29.94,SSE,167,2.0,5.0,59,0.00,,,0.00,meteohub,2013-07-18 23:17:00,
2013-07-18 19:22:00,93.0,76.6,29.94,South,181,4.0,5.0,59,0.00,,,0.00,meteohub,2013-07-18 23:22:00,
2013-07-18 19:27:00,93.0,76.6,29.94,SSE,167,4.0,6.0,59,0.00,,,0.00,meteohub,2013-07-18 23:27:00,
2013-07-18 19:32:00,92.8,76.5,29.95,SSE,152,1.0,6.0,59,0.00,,,0.00,meteohub,2013-07-18 23:32:00,
2013-07-18 19:37:00,93.0,76.6,29.95,SE,127,1.0,6.0,59,0.00,,,0.00,meteohub,2013-07-18 23:37:00,
2013-07-18 19:42:00,92.8,76.5,29.95,SSE,151,2.0,6.0,59,0.00,,,0.00,meteohub,2013-07-18 23:42:00,
2013-07-18 19:47:00,92.8,76.5,29.95,SSW,192,4.0,6.0,59,0.00,,,0.00,meteohub,2013-07-18 23:47:00,
2013-07-18 19:52:00,92.1,74.7,29.96,WNW,284,10.0,10.0,57,0.00,,,0.00,meteohub,2013-07-18 23:52:00,
2013-07-18 19:57:00,86.9,74.7,29.97,NNE,13,11.0,25.0,67,0.08,,,0.00,meteohub,2013-07-18 23:57:00,
2013-07-18 20:02:00,84.6,73.2,29.96,ENE,74,3.0,25.0,69,0.17,,,0.17,meteohub,2013-07-19 00:02:00,
2013-07-18 20:07:00,83.7,74.5,29.96,SSE,148,3.0,25.0,74,0.22,,,0.22,meteohub,2013-07-19 00:07:00,
2013-07-18 20:12:00,83.7,74.8,29.95,SE,128,1.0,17.0,75,0.23,,,0.23,meteohub,2013-07-19 00:12:00,
2013-07-18 20:17:00,83.1,75.6,29.95,ESE,115,0.0,10.0,78,0.24,,,0.24,meteohub,2013-07-19 00:17:00,
2013-07-18 20:22:00,82.6,76.1,29.95,ESE,117,0.0,3.0,81,0.24,,,0.24,meteohub,2013-07-19 00:22:00,
2013-07-18 20:27:00,82.2,76.5,29.95,SE,132,1.0,3.0,83,0.24,,,0.24,meteohub,2013-07-19 00:27:00,
2013-07-18 20:32:00,82.2,76.8,29.95,South,179,1.0,2.0,84,0.25,,,0.25,meteohub,2013-07-19 00:32:00,
2013-07-18 20:37:00,81.9,76.1,29.95,SSE,150,0.0,2.0,83,0.25,,,0.25,meteohub,2013-07-19 00:37:00,
2013-07-18 20:42:00,82.0,77.0,29.95,SSE,149,2.0,2.0,85,0.25,,,0.25,meteohub,2013-07-19 00:42:00,
2013-07-18 20:47:00,82.0,76.3,29.95,SE,136,0.0,2.0,83,0.25,,,0.25,meteohub,2013-07-19 00:47:00,
2013-07-18 20:52:00,82.0,76.6,29.94,SE,135,0.0,2.0,84,0.25,,,0.25,meteohub,2013-07-19 00:52:00,
2013-07-18 20:57:00,82.0,77.4,29.94,SE,136,0.0,2.0,86,0.16,,,0.25,meteohub,2013-07-19 00:57:00,
2013-07-18 21:02:00,82.0,77.4,29.94,SE,135,0.0,1.0,86,0.05,,,0.25,meteohub,2013-07-19 01:02:00,
2013-07-18 21:07:00,82.0,77.7,29.95,SE,135,0.0,1.0,87,0.02,,,0.25,meteohub,2013-07-19 01:07:00,
2013-07-18 21:12:00,82.0,77.7,29.94,ENE,77,1.0,0.0,87,0.02,,,0.25,meteohub,2013-07-19 01:12:00,
2013-07-18 21:17:00,82.0,77.4,29.95,ENE,77,0.0,1.0,86,0.01,,,0.25,meteohub,2013-07-19 01:17:00,
2013-07-18 21:22:00,82.0,77.0,29.95,ENE,77,0.0,1.0,85,0.01,,,0.25,meteohub,2013-07-19 01:22:00,
2013-07-18 21:27:00,82.2,77.2,29.95,ENE,76,0.0,1.0,85,0.00,,,0.25,meteohub,2013-07-19 01:27:00,
2013-07-18 21:32:00,82.4,77.7,29.95,ENE,76,0.0,0.0,86,0.00,,,0.25,meteohub,2013-07-19 01:32:00,
2013-07-18 21:37:00,82.4,77.7,29.94,ENE,77,0.0,0.0,86,0.00,,,0.25,meteohub,2013-07-19 01:37:00,
2013-07-18 21:42:00,82.6,78.3,29.95,ENE,76,0.0,0.0,87,0.00,,,0.25,meteohub,2013-07-19 01:42:00,
2013-07-18 21:47:00,82.6,78.3,29.95,ENE,77,0.0,0.0,87,0.00,,,0.25,meteohub,2013-07-19 01:47:00,
2013-07-18 21:52:00,82.4,78.4,29.95,ENE,77,0.0,0.0,88,0.00,,,0.25,meteohub,2013-07-19 01:52:00,
2013-07-18 21:57:00,82.4,78.4,29.95,ENE,76,0.0,0.0,88,0.00,,,0.25,meteohub,2013-07-19 01:57:00,
2013-07-18 22:02:00,82.6,78.6,29.95,East,81,0.0,0.0,88,0.00,,,0.25,meteohub,2013-07-19 02:02:00,
2013-07-18 22:07:00,82.9,78.6,29.95,SSW,204,0.0,1.0,87,0.00,,,0.25,meteohub,2013-07-19 02:07:00,
2013-07-18 22:12:00,83.7,79.0,29.95,SSW,199,0.0,2.0,86,0.00,,,0.25,meteohub,2013-07-19 02:12:00,
2013-07-18 22:17:00,84.2,79.2,29.95,SSE,161,0.0,2.0,85,0.00,,,0.25,meteohub,2013-07-19 02:17:00,
2013-07-18 22:22:00,84.6,79.2,29.95,SE,138,0.0,2.0,84,0.00,,,0.25,meteohub,2013-07-19 02:22:00,
2013-07-18 22:27:00,84.9,79.2,29.95,SE,141,1.0,3.0,83,0.00,,,0.25,meteohub,2013-07-19 02:27:00,
2013-07-18 22:32:00,85.3,79.2,29.95,SE,127,0.0,3.0,82,0.00,,,0.25,meteohub,2013-07-19 02:32:00,
2013-07-18 22:37:00,85.3,79.2,29.95,South,185,0.0,3.0,82,0.00,,,0.25,meteohub,2013-07-19 02:37:00,
2013-07-18 22:42:00,85.5,79.0,29.94,SE,136,1.0,4.0,81,0.00,,,0.25,meteohub,2013-07-19 02:42:00,
2013-07-18 22:47:00,85.6,78.8,29.94,SSW,201,2.0,4.0,80,0.00,,,0.25,meteohub,2013-07-19 02:47:00,
2013-07-18 22:52:00,86.0,78.8,29.94,SSE,167,1.0,4.0,79,0.00,,,0.25,meteohub,2013-07-19 02:52:00,
2013-07-18 22:57:00,86.2,79.0,29.95,SSW,204,0.0,4.0,79,0.00,,,0.25,meteohub,2013-07-19 02:57:00,
2013-07-18 23:02:00,86.0,78.8,29.95,SSE,166,2.0,4.0,79,0.00,,,0.25,meteohub,2013-07-19 03:02:00,
2013-07-18 23:07:00,86.0,78.8,29.94,SSE,158,1.0,3.0,79,0.00,,,0.25,meteohub,2013-07-19 03:07:00,
2013-07-18 23:12:00,86.0,79.2,29.94,SSE,152,2.0,3.0,80,0.00,,,0.25,meteohub,2013-07-19 03:12:00,
2013-07-18 23:17:00,85.8,78.6,29.94,WSW,245,2.0,3.0,79,0.00,,,0.25,meteohub,2013-07-19 03:17:00,
2013-07-18 23:22:00,86.2,79.0,29.94,SSE,160,3.0,4.0,79,0.00,,,0.25,meteohub,2013-07-19 03:22:00,
2013-07-18 23:27:00,86.2,79.0,29.94,South,174,3.0,5.0,79,0.00,,,0.25,meteohub,2013-07-19 03:27:00,
2013-07-18 23:32:00,86.2,79.0,29.94,SE,125,1.0,5.0,79,0.00,,,0.25,meteohub,2013-07-19 03:32:00,
2013-07-18 23:37:00,86.2,78.4,29.94,SSW,195,2.0,6.0,78,0.00,,,0.25,meteohub,2013-07-19 03:37:00,
2013-07-18 23:43:00,86.4,78.6,29.94,SSE,164,3.0,6.0,78,0.00,,,0.25,meteohub,2013-07-19 03:43:00,
2013-07-18 23:48:00,86.4,78.6,29.94,SW,226,3.0,7.0,78,0.00,,,0.25,meteohub,2013-07-19 03:48:00,
2013-07-18 23:53:00,86.2,79.0,29.94,South,184,1.0,7.0,79,0.00,,,0.25,meteohub,2013-07-19 03:53:00,
2013-07-18 23:58:00,85.8,79.0,29.94,SW,233,3.0,7.0,80,0.00,,,0.25,meteohub,2013-07-19 03:58:00,